www.pogodaiklimat.ru

Погода и климат >> Архив погоды >> Малайзия >> Малакка


ПОГОДА в Малакке

  • Прогноз погоды в Малакке
  • Монитор погоды в Малакке

АРХИВ ПОГОДЫ в Малакке

Время (UTC), дата Ветер
(напр.,м/с)
 
Видим.   Явления Облачность Т
(С)
Тd
(С)
f
(%)
Тe
(С)
Тes
(С)
Комфортность P
(гПа)
Po
(гПа)
Тmin
(С)
Tmax
(С)
R
(мм)
R24
(мм)
S
(см)
18 14.03 С 2 13 км мгла 9/1 900 м
[Sc Ac trans Ci sp]
+25.3 +21.4 79 +32 +32 очень
душно
1013.1 1012.1
21 14.03 СВ 2 13 км мгла 9/1 840 м
[Sc Ac trans Ci sp]
+24.4 +21.8 85 +31 +31 очень
душно
1012.7 1011.7
00 15.03 СВ 1 12 км мгла 9/1 1000 м
[Cu hum Ac trans Ci sp]
+23.4 +21.7 90 +32 +32 очень
душно
1013.7 1012.7 +22.7
03 15.03 СВ 3 12 км мгла 8/4 600 м
[Cu med, cong Ac lent Ci sp]
+30.2 +22.2 62 +39 +44 очень
душно
1015.1 1014.1
06 15.03 СВ 5 18 км мгла 8/3 630 м
[Cu med, cong Ac lent Ci fib]
+34.2 +20.1 44 +41 +46 опасность
перегрева
1012.0 1011.0
09 15.03 Ю 3 18 км мгла 9/3 660 м
[Cu med, cong Ac lent Ci sp]
+32.2 +23.7 61 +44 +46 опасность
перегрева
1010.0 1009.0
12 15.03 Ю 1 14 км мгла 8/1 800 м
[Sc Ac trans Ci sp]
+29.3 +22.7 68 +39 +39 очень
душно
1010.9 1009.9 +35.1
15 15.03 СВ 2 14 км мгла 8/3 900 м
[Sc Ac trans Ci sp]
+26.5 +19.8 67 +32 +32 очень
душно
1014.2 1013.2
18 15.03 СВ 2 14 км мгла 6/3 960 м
[Sc Ac trans Ci fib]
+23.9 +19.9 78 +29 +29 душно 1013.0 1012.0
21 15.03 СВ 2 14 км мгла 6/3 900 м
[Sc Ac trans Ci sp]
+23.7 +20.2 81 +29 +29 душно 1012.0 1011.0
00 16.03 СВ 2 8000 м мгла 8/3 <50 м
[Cu Sc Ac trans Ci sp]
+23.6 +20.9 85 +30 +30 очень
душно
1013.4 1012.4 +23.0
03 16.03 СВ 5 18 км мгла 6/1 600 м
[Cu hum Ac trans Ci sp]
+31.2 +21.0 55 +39 +45 очень
душно
1014.6 1013.6
06 16.03 СВ 3 18 км мгла 8/3 630 м
[Cu med, cong Ac trans Ci sp]
+34.3 +20.8 45 +41 +49 опасность
перегрева
1012.1 1011.1
09 16.03 СВ 3 18 км мгла 8/3 660 м
[Cu med, cong Ac trans Ci fib]
+34.9 +19.2 40 +40 +43 очень
душно
1009.7 1008.7
12 16.03 Ю 2 14 км мгла 8/1 800 м
[Sc Ac lent Ci fib]
+30.7 +23.1 64 +41 +41 опасность
перегрева
1011.8 1010.8 +35.3
15 16.03 СВ 3 12 км мгла 8/1 900 м
[Sc Ac trans Ci sp]
+27.6 +20.4 65 +34 +34 очень
душно
1014.6 1013.6
18 16.03 СВ 2 7000 м мгла 9/1 900 м
[Sc Ac As Ci sp]
+25.4 +21.5 79 +32 +32 очень
душно
1013.7 1012.7
21 16.03 СВ 2 7000 м мгла 9/3 900 м
[Sc Ac As Ci sp]
+23.9 +21.4 86 +30 +30 очень
душно
1011.8 1010.8
00 17.03 СВ 2 5000 м мгла 8/1 <50 м
[Cu Sc Ac trans Ci sp]
+24.3 +21.2 83 +31 +31 очень
душно
1012.7 1011.7 +23.2
03 17.03 СВ 5 14 км мгла 8/1 570 м
[Cu hum Ac trans Ci fib]
+31.0 +19.8 51 +37 +41 очень
душно
1014.0 1013.0
06 17.03 СВ 5 16 км мгла 8/1 600 м
[Cu hum Ac trans Ci fib]
+33.9 +20.0 44 +40 +47 очень
душно
1011.7 1010.7
09 17.03 В 4 16 км мгла 8/1 600 м
[Cu hum Ac trans Ci fib]
+34.7 +18.5 38 +39 +41 очень
душно
1009.4 1008.4
12 17.03 В 4 12 км мгла 8/1 840 м
[Sc Ac trans Ci sp]
+31.2 +15.6 39 +34 +34 душно 1011.2 1010.2 +35.1
15 17.03 СВ 2 12 км мгла 8/1 900 м
[Sc Ac trans Ci fib]
+26.8 +16.5 53 +30 +30 душно 1013.9 1012.9
18 17.03 СВ 1 12 км мгла 8/3 900 м
[Cu hum Ac trans Ci fib]
+24.7 +19.5 73 +30 +30 очень
душно
1013.5 1012.5
21 17.03 СВ 2 12 км мгла 8/1 840 м
[Cu hum Ac trans Ci fib]
+23.4 +20.3 83 +31 +31 очень
душно
1011.9 1010.9
00 18.03 СВ 1 3000 м мгла 8/1 <50 м
[Cu hum Ac trans Ci fib]
+23.6 +20.8 84 +29 +30 душно 1012.5 1011.5 +23.0
03 18.03 СВ 4 6000 м мгла 8/1 600 м
[Cu hum Ac trans Ci fib]
+30.7 +21.0 56 +38 +44 очень
душно
1013.4 1012.4
06 18.03 СВ 4 10 км мгла 8/3 600 м
[Cu hum Ac trans Ci fib]
+33.7 +20.7 47 +41 +47 опасность
перегрева
1010.5 1009.5
09 18.03 СВ 3 9000 м мгла 9/4 600 м
[Cu med, cong Ac trans Ci fib]
+34.4 +20.4 44 +41 +43 опасность
перегрева
1008.0 1007.0
12 18.03 ЮВ 1 8000 м мгла 8/1 800 м
[Sc Ac trans Ci fib]
+30.3 +24.3 70 +42 +42 опасность
перегрева
1010.0 1009.0 +35.3
15 18.03 СВ 2 8000 м мгла 8/1 840 м
[Sc Ac trans Ci sp]
+28.1 +20.0 61 +34 +34 очень
душно
1012.7 1011.7
18 18.03 СВ 2 8000 м мгла 8/1 900 м
[Sc Ac trans Ci sp]
+26.0 +19.9 69 +32 +32 очень
душно
1012.1 1011.1
21 18.03 СВ 2 7000 м мгла 8/1 840 м
[Sc Ac trans Ci sp]
+24.9 +21.4 81 +32 +32 очень
душно
1010.5 1009.5
00 19.03 СВ 3 4000 м мгла 9/1 1000 м
[Cu hum Ac trans Ci sp]
+25.0 +22.1 84 +32 +33 очень
душно
1011.4 1010.4 +23.6
03 19.03 СВ 5 9000 м мгла 8/1 600 м
[Cu hum Ac trans Ci fib]
+31.6 +22.1 57 +40 +45 очень
душно
1012.6 1011.6
06 19.03 В 2 12 км мгла 9/4 600 м
[Cu med, cong Ac trans Ci fib]
+35.3 +21.2 44 +43 +50 опасность
перегрева
1010.1 1009.1
09 19.03 Ю 3 14 км мгла 6/1 630 м
[Cb calv Ac trans Ci sp]
+32.8 +22.3 54 +42 +45 опасность
перегрева
1007.3 1006.3
12 19.03 ЮВ 2 12 км мгла 9/1 800 м
[Sc Ac As Ci sp]
+30.2 +24.6 72 +43 +43 опасность
перегрева
1008.6 1007.6 +35.7
15 19.03 СВ 2 12 км мгла 9/3 800 м
[Sc Ac trans Ci sp]
+29.0 +22.5 68 +38 +38 очень
душно
1011.5 1010.5
18 19.03 СВ 3 10 км зарница 9/4 500 м
[Cb cap Ac trans Ci sp]
+27.5 +23.0 76 +37 +37 очень
душно
1011.5 1010.5
21 19.03 СВ 2 7000 м мгла 9/3 800 м
[Sc Ac As Ci sp]
+26.2 +23.1 83 +35 +35 очень
душно
1009.8 1008.8
00 20.03 СВ 3 4000 м мгла 9/1 1000 м
[Sc Ac trans Ci sp]
+26.3 +23.0 82 +35 +35 очень
душно
1010.9 1009.9 +25.0
03 20.03 СВ 4 7000 м мгла 8/1 570 м
[Cu hum Ac trans Ci sp]
+31.4 +23.2 62 +42 +48 опасность
перегрева
1012.3 1011.3
06 20.03 З 3 2000 м ливневой дождь 9/4 300 м
[Cb cap Ac As Ci sp]
+30.9 +25.0 71 +44 +50 опасность
перегрева
1010.5 1009.5 4
09 20.03 СВ 1 14 км мгла {гроза} 9/3 500 м
[Cb cap Ac lent Ci sp]
+29.8 +25.1 76 +43 +46 опасность
перегрева
1007.5 1006.5
12 20.03 З 1 10 км мгла {гроза} 9/1 800 м
[Sc Ac lent Ci sp]
+29.7 +25.2 77 +43 +43 опасность
перегрева
1008.5 1007.5 +34.2 15
15 20.03 СВ 2 7000 м мгла 9/3 800 м
[Sc Ac lent Ci sp]
+28.0 +24.9 83 +40 +40 очень
душно
1011.6 1010.6
18 20.03 СВ 2 12 км мгла 9/1 840 м
[Sc diur, vesp Ci sp]
+26.6 +23.0 81 +36 +36 очень
душно
1011.2 1010.2
21 20.03 СВ 2 12 км зарница 9/3 500 м
[Cb cap Ac As Ci sp]
+25.7 +22.5 83 +34 +34 очень
душно
1010.1 1009.1
00 21.03 СВ 4 3000 м мгла 9/1 500 м
[Cb cap Ac As Ci sp]
+25.5 +23.0 86 +34 +34 очень
душно
1010.8 1009.8 +25.3 19
03 21.03 В 2 8000 м мгла 9/1 570 м
[Cu hum Ac As Ci sp]
+27.3 +23.5 80 +37 +45 очень
душно
1013.5 1012.5
06 21.03 СВ 3 12 км мгла 9/3 600 м
[Cu med, cong Ac lent Ci sp]
+32.5 +23.9 61 +44 +52 опасность
перегрева
1010.4 1009.4
09 21.03 СЗ 1 8000 м в посл. час гроза {ливн. осадки} 9/5 500 м
[Cb cap Ac As Cs]
+25.9 +24.1 90 +36 +38 очень
душно
1008.8 1007.8
12 21.03 СЗ 2 9000 м мгла {гроза} 9/3 800 м
[Sc Ac lent Cs]
+26.2 +23.8 87 +36 +36 очень
душно
1010.4 1009.4 +32.7 23
15 21.03 С 2 8000 м мгла 9/1 900 м
[Sc Ac As Ci sp]
+26.0 +23.6 87 +35 +35 очень
душно
1013.2 1012.2

 

Местоположение метеостанции Малакка (Малайзия): широта 2.27 долгота 102.25 высота над уровнем моря 9 м.

В архиве по умолчанию представлена погода в Малакке за последнюю неделю. Архивные данные за месяц целиком и за предыдущие месяцы, начиная с января 2011 года, Вы можете получить, выбрав интересующий диапазон дат из раскрывающегося списка и нажав кнопку "Ввод!".


*Определитесь, кто Вы:
робот инопланетянин человек

Внимание! Время в таблицах - всемирное. Для получения местного времени необходимо прибавить поправку, которая равна 7 ч.

Смотрите также архив погоды в соседних городах и на ближайших метеорологических станциях:

Погода в Куала-Лумпур аэропорту (Малайзия) (79 км)
Погода в Куала-Лумпуре (Малайзия) (122 км)
Погода в Аэропорту Сеная (Малайзия) (173 км)
Погода в Куантане (Малайзия) (199 км)
Погода в Сингапуре (Сингапур) (217 км)
Погода в Пеканбару (Индонезия) (219 км)
Погода в Аэропорту Ханга Надима (Индонезия) (243 км)
Погода на Нагорье Кэмерон (Малайзия) (263 км)
Погода в Ситаване (Малайзия) (277 км)
Погода в Ипохе (Малайзия) (286 км)

Пояснения к столбцам:

Ветер - указаны скорость ветра в м/с - средняя за 10 мин, порывы в срок и между сроками (в фигурных скобках) и направление, откуда дует ветер: С - северный, СВ - северо-восточный, В - восточный, ЮВ - юго-восточный, Ю - южный, ЮЗ - юго-западный, З - западный, СЗ - северо-западный.
Видимость - горизонтальная дальность видимости в метрах или километрах. При видимости от 1 до 10 км при отсутствии осадков обычно наблюдается дымка, при ухудшении видимости до 1 км и менее - туман. В сухую погоду видимость может ухудшаться дымом, пылью или мглою.
Явления - указаны атмосферные явления, наблюдавшиеся в срок или в последний час перед сроком; фигурными скобками обозначены явления, наблюдавшиеся между сроками (за 1-3 часа до срока); квадратными скобками обозначены град или гололедные отложения с указанием их диаметра в мм.
Облачность - указаны через наклонную черту общая и нижняя облачность в баллах и высота нижней границы облаков в метрах; квадратными скобками обозначены формы облаков: Ci - перистые, Cs - перисто-слоистые, Cc - перисто-кучевые, Ac - высококучевые, As - высокослоистые, Sc - слоисто-кучевые, Ns - слоисто-дождевые, Cu - кучевые, Cb - кучево-дождевые. Подробнее классификацию облаков см. в Атласе облаков (PDF).
T - Температура воздуха - температура, измеренная на высоте 2 м над землей.
Td - Температура точки росы - температура, при понижении до которой содержащийся в воздухе водяной пар достигнет насыщения.
f - Относительная влажность воздуха - влажноcть воздуха, измеренная на высоте 2 м над землей.
Te - Эффективная температура - температура, которую ощущает одетый по сезону человек в тени. Характеристика душности погоды. При расчете учитывается влияние влажности воздуха и скорости ветра на теплоощущения человека.
Tes - Эффективная температура на солнце - температура, которую ощущает человек, с поправкой на солнечный нагрев. Характеристика знойности погоды. Зависит от высоты солнца над горизонтом, облачности и скорости ветра. Ночью, в пасмурную погоду, а также при ветре 12 м/с и более поправка равна нулю.
P - Атмосферное давление - приведенное к уровню моря атмосферное давление.
Po - Атмосферное давление - измеренное на уровне метеостанции атмосферное давление.
Tmin - Минимальная температура - минимум температуры воздуха на высоте 2 м над землей.
Tmax - Максимальная температура - максимум температуры воздуха на высоте 2 м над землей.
R - Количество осадков - Количество выпавших осадков за период времени, мм. При наведении курсора мыши на число - период времени, за который выпало указанное количество осадков.
R24 - Количество осадков - Количество выпавших осадков за 24 часа, мм.
S - Снежный покров - Высота снежного покрова, см. При наведении курсора мыши на число - состояние снежного покрова и степень покрытия местности в баллах.